Location: Allos
(44.2333°N, 6.6333°E)
Time: 18:39:48
(UTC+00:00)

Cosmos 2228 Rocket - Pass Details

Date: 29 April 2021
Orbit: 617 x 652 km, 82.5° (Epoch: 05 May)

Event Time Altitude Azimuth Distance (km) Brightness Sun altitude
Exits shadow 22:14:54 20° 48° (NE) 1,461 5.1 -28.5°
Drops below altitude 10° 22:16:39 10° 31° (NNE) 1,995 6.1 -28.6°
Sets 22:19:07 0° 20° (NNE) 2,910 7.2 -28.8°
